Wind_Speed
25 26 26 25 24 23 22 21 21 22 22 22 21 20 20 21 22 22 22 21 22 23 24 24 25 26 28 28 28 29 30 31 31 34 39 42 44 44 43 42 44 46 47 45 43 43 42 38 35 37 39 40 37 36 39 41 43 46 46 45 44 44 42 38 36 32 27 25 26 26 26 25 24 23 21 19 17 16 15 15 16 17 18 19 19
29 28 28 27 27 25 24 24 24 24 25 24 24 23 23 23 24 25 25 24 24 24 25 26 26 27 28 29 29 29 31 31 31 32 36 39 40 41 41 41 43 45 44 42 41 42 41 37 38 38 37 37 38 38 40 42 44 45 45 44 43 43 41 37 34 30 26 27 29 28 26 25 23 20 17 16 15 15 15 15 16 17 18 19 19
31 32 32 30 29 28 27 26 27 27 26 26 26 25 25 25 26 27 27 27 27 27 27 28 28 29 29 29 30 30 30 31 31 31 35 38 39 39 40 41 43 44 43 42 42 40 38 38 40 38 35 35 38 39 41 42 43 44 43 43 42 41 38 35 34 31 27 28 30 30 28 24 20 16 14 14 14 15 15 15 16 17 17 18 19
30 32 35 35 34 32 31 30 30 30 29 29 28 27 27 27 27 28 28 29 29 29 30 30 30 31 31 31 30 30 30 30 30 31 34 37 39 39 40 41 42 42 42 42 41 40 40 40 39 36 35 37 39 40 41 41 42 43 41 40 40 38 35 34 33 30 27 29 31 30 25 20 16 14 13 13 13 14 15 15 16 16 17 18 19
31 30 33 36 38 37 34 32 33 33 33 32 31 29 29 29 29 29 29 30 31 31 31 32 32 32 33 32 31 31 30 29 31 32 33 35 37 38 38 38 38 38 38 38 38 38 39 39 37 36 36 38 38 37 38 40 41 41 38 37 37 36 33 32 30 27 27 29 30 28 21 17 15 13 12 12 12 14 15 15 15 15 16 18 19
32 30 30 32 36 38 38 37 36 36 36 36 34 33 32 32 32 31 31 32 32 32 32 33 33 33 34 33 32 31 30 30 31 31 32 33 34 36 37 36 35 35 35 35 35 35 35 36 37 37 37 36 34 33 36 38 39 38 37 36 36 35 32 29 26 24 23 24 25 23 19 16 14 12 11 11 12 13 14 14 14 15 16 18 18
32 31 31 31 32 33 35 37 38 38 39 40 39 38 36 35 35 34 34 34 33 33 34 34 34 34 34 34 34 32 31 30 30 31 32 33 34 35 36 37 37 36 34 33 33 33 33 34 36 36 34 32 31 32 34 36 37 37 37 37 37 35 31 28 27 24 22 21 20 18 16 14 11 10 10 10 12 13 14 14 15 15 16 18 18
31 31 32 32 32 31 31 32 34 36 38 40 42 43 41 39 37 36 36 36 35 35 35 34 34 34 35 35 35 33 32 31 31 31 32 34 35 35 36 37 37 36 35 34 34 34 32 33 33 32 31 30 30 30 31 33 36 37 37 37 36 33 30 29 28 26 24 21 17 14 12 10 9 9 9 11 13 14 14 16 16 15 16 17 18
30 31 32 33 33 32 32 32 33 33 35 36 39 43 45 42 40 39 38 37 36 36 36 35 35 35 36 36 36 35 34 33 32 32 33 34 35 36 36 36 36 36 36 35 34 34 34 34 32 31 31 31 28 27 27 30 33 36 37 37 34 31 30 29 28 27 23 18 14 12 10 8 8 9 10 12 14 14 15 16 16 16 16 17 18
30 31 33 34 34 34 34 35 35 35 36 35 35 38 43 44 42 41 40 38 37 38 37 36 36 36 36 36 36 36 36 34 32 31 32 32 33 35 35 35 35 35 36 36 35 35 36 35 33 32 33 32 27 25 26 29 31 33 35 35 34 32 31 29 28 24 19 15 13 11 9 9 9 10 11 13 15 15 14 15 15 16 17 19 20
30 31 33 34 35 36 37 37 38 38 37 36 36 36 40 43 44 43 41 40 39 39 38 37 37 36 36 36 36 37 36 35 32 30 30 31 32 33 34 34 35 36 37 38 37 36 35 34 33 33 34 32 27 25 26 28 29 31 33 34 32 30 29 27 24 19 15 13 11 10 9 10 10 12 13 14 15 14 13 14 15 17 18 20 21
30 32 33 34 35 36 37 37 38 39 38 37 37 37 38 42 44 44 42 40 39 39 38 37 37 36 36 37 36 37 36 34 32 30 29 30 32 34 35 35 35 36 36 36 35 33 32 31 31 32 32 30 27 25 26 27 28 30 31 29 26 25 23 21 18 15 13 11 11 10 11 11 12 13 13 13 13 13 13 14 16 18 19 20 21
31 33 34 35 36 35 35 35 36 37 37 36 37 37 38 40 42 43 42 40 39 39 38 37 37 36 37 37 37 36 35 33 31 29 29 30 32 34 35 35 34 34 33 33 32 30 30 31 31 31 30 29 27 26 26 28 29 28 25 24 25 24 21 17 14 13 12 11 11 11 11 12 13 12 11 11 12 12 13 15 16 18 19 19 19
32 33 34 36 36 35 34 34 35 35 35 35 36 37 38 38 38 39 40 40 40 39 38 37 36 36 37 36 36 36 34 32 29 26 26 29 31 33 34 34 33 32 31 30 29 29 29 29 29 29 29 29 29 27 27 29 30 27 26 28 28 24 19 16 13 11 11 11 11 11 12 12 11 10 10 11 12 13 14 15 15 17 18 17 18
35 34 34 36 37 36 34 34 34 34 34 35 35 36 37 37 36 37 38 39 39 38 36 36 36 36 36 35 35 35 33 30 27 24 24 28 31 32 33 33 31 29 28 27 27 28 28 27 28 28 28 29 30 29 29 31 32 31 32 32 27 21 16 13 11 10 10 10 10 11 11 11 10 9 9 11 13 14 14 14 15 16 17 16 16
37 37 35 35 36 36 35 35 35 34 34 35 36 36 36 37 36 36 37 38 38 37 36 36 35 36 35 34 35 34 32 29 27 26 26 29 32 32 32 31 29 28 28 28 28 29 28 28 28 28 27 28 28 29 31 33 34 34 32 28 23 18 14 11 10 9 9 9 11 11 11 10 9 9 10 11 12 13 14 14 14 15 15 15 16
39 38 36 35 35 36 37 37 37 36 35 36 37 37 37 37 36 36 37 37 37 36 35 34 34 34 33 33 33 32 29 26 26 27 29 30 31 31 31 30 32 32 31 29 29 29 29 28 27 26 24 24 26 29 31 34 36 34 29 23 19 16 13 10 9 8 9 11 12 11 10 9 9 9 10 11 12 13 13 13 12 13 13 13 15
39 38 37 36 35 36 37 38 38 38 37 36 36 37 37 37 36 35 36 35 35 34 32 32 32 31 30 30 29 27 25 22 23 27 29 30 30 30 31 32 33 32 30 28 28 28 28 26 24 21 20 22 26 30 34 37 36 31 26 22 18 14 10 8 8 9 12 13 12 11 9 9 9 10 10 11 12 12 12 12 11 11 11 12 13
36 36 37 36 35 35 36 37 38 38 38 36 36 36 36 36 35 34 34 34 33 32 31 30 30 29 28 27 26 24 22 20 22 26 28 29 30 30 30 30 29 28 27 27 27 27 27 25 21 19 20 23 29 35 38 38 34 28 24 21 16 10 8 8 10 12 13 13 11 10 9 9 9 10 10 10 10 11 10 10 10 10 11 11 13
33 34 34 34 33 34 35 36 37 37 37 36 35 36 36 37 36 35 34 33 32 31 30 30 29 28 26 25 24 23 22 22 23 25 27 28 28 28 27 27 27 26 26 26 27 26 25 23 21 20 21 25 32 38 38 33 29 27 23 18 13 10 10 10 12 13 13 12 10 9 9 9 9 9 9 9 9 9 9 9 9 10 11 12 13
33 33 33 32 33 34 35 35 35 35 35 35 35 36 36 36 36 35 33 32 31 30 29 28 27 27 25 24 23 23 23 24 24 25 26 26 25 24 23 23 24 25 25 26 26 26 25 24 22 21 23 28 35 39 35 28 25 23 19 16 13 13 12 13 14 14 13 11 9 9 9 10 10 9 8 8 8 8 8 9 10 11 12 13 13
34 33 32 32 33 34 34 35 34 34 35 34 35 35 34 34 34 33 32 31 30 29 28 27 26 26 25 24 23 23 24 25 25 25 25 24 22 20 21 22 24 25 26 26 26 25 23 23 23 23 27 34 39 38 32 27 23 20 18 17 16 14 13 14 15 14 12 10 10 10 10 10 8 8 8 7 7 7 8 9 10 11 12 13 14
37 35 33 32 32 33 34 34 33 34 34 34 34 34 33 33 32 32 31 30 29 28 27 26 25 24 23 23 23 24 24 25 25 25 25 23 21 20 21 22 24 24 24 24 24 23 22 23 24 26 32 39 41 36 30 25 23 21 20 19 16 14 14 15 15 13 12 11 11 10 9 8 7 7 6 6 6 7 8 9 10 11 12 13 15
40 39 35 33 32 33 33 33 33 33 33 33 33 33 32 31 31 30 29 28 27 26 26 25 24 23 22 22 23 23 24 24 24 24 24 22 21 21 21 20 20 20 19 18 20 21 22 23 25 28 36 41 38 31 26 24 24 23 21 18 15 14 14 15 14 13 12 11 11 9 7 6 6 6 5 5 6 7 9 10 11 11 12 13 14
41 42 40 36 33 33 33 33 33 32 32 32 32 31 30 29 29 28 27 26 26 25 24 23 22 21 22 22 22 23 23 23 23 23 21 20 19 19 19 18 17 17 17 16 18 20 22 24 26 32 38 38 32 27 25 25 25 24 20 16 14 14 14 15 15 14 12 11 10 8 6 6 6 5 5 5 7 8 10 11 12 12 12 13 14
40 41 42 39 35 34 34 33 32 31 30 30 29 29 28 26 25 25 25 25 24 23 21 20 20 21 21 21 21 22 22 22 22 20 19 18 18 18 17 17 17 17 16 16 18 20 22 24 29 34 37 34 30 28 28 27 26 22 18 15 14 14 15 15 14 13 11 10 8 7 7 7 6 5 5 6 8 10 11 12 13 12 12 13 14
38 40 40 39 36 34 34 32 31 29 28 28 27 26 25 24 24 24 23 23 22 21 19 19 20 21 21 21 21 21 21 21 20 19 19 19 19 19 19 19 19 19 19 19 19 21 23 27 31 35 36 34 31 30 29 27 25 20 16 14 14 15 16 16 13 12 11 10 9 8 8 7 5 5 5 7 9 11 12 13 13 12 12 13 14
36 37 38 38 36 33 32 32 30 28 27 25 24 24 23 23 23 21 20 19 18 17 16 17 18 19 20 21 21 21 21 20 20 20 20 20 20 20 21 21 22 23 23 23 23 24 27 31 35 38 38 36 33 31 29 26 22 18 15 14 15 17 18 16 14 13 12 10 10 9 8 6 5 6 7 9 10 11 12 12 12 12 12 13 13
35 35 36 37 35 32 30 30 29 27 25 23 23 22 21 20 19 18 17 16 15 14 14 15 16 18 19 20 20 20 20 19 20 19 18 18 18 18 19 22 24 25 26 26 27 30 32 35 38 39 38 36 33 31 28 24 20 17 16 16 18 19 18 16 14 14 12 11 10 9 7 6 6 7 8 10 11 12 12 12 13 13 13 13 13
34 33 34 34 33 30 27 27 26 26 25 23 22 22 21 19 18 17 17 17 17 17 16 15 15 16 17 18 17 15 14 15 17 17 16 16 16 16 17 20 24 26 27 27 29 32 35 37 39 39 37 35 32 29 26 22 19 18 17 19 21 20 17 16 15 14 13 13 11 9 7 7 7 8 9 11 12 12 13 13 14 13 13 13 13
34 33 32 32 30 27 24 23 24 25 25 23 23 22 21 20 20 19 19 18 18 18 17 15 14 14 14 14 14 13 12 12 14 16 15 15 16 16 17 20 23 25 27 27 28 32 35 36 37 37 35 32 29 26 24 21 20 19 20 21 22 19 18 17 16 15 15 13 11 9 8 7 8 9 10 12 13 13 14 14 14 13 12 12 12
34 31 30 29 28 25 23 22 22 24 25 25 24 24 23 22 22 22 21 19 18 17 16 15 14 14 13 12 13 14 14 14 14 15 16 16 17 18 19 21 23 24 24 25 27 31 33 34 35 34 32 29 27 24 23 21 21 21 21 22 21 19 18 18 17 17 16 13 10 9 8 9 10 10 11 13 14 15 15 15 14 13 13 12 12
33 31 29 28 27 25 24 23 23 23 25 25 25 25 24 24 23 22 21 19 17 16 15 14 14 15 15 14 13 14 15 15 15 16 17 18 19 20 21 22 22 22 22 23 26 29 31 32 31 30 28 27 25 24 24 23 22 22 22 21 19 18 19 19 18 17 15 12 10 10 10 10 11 12 12 14 15 16 16 15 14 14 13 13 13
31 31 29 27 26 26 25 24 24 24 24 25 25 25 24 23 22 21 19 18 18 17 16 16 16 17 17 17 15 14 15 17 17 18 18 19 20 21 22 22 22 21 22 24 26 28 29 29 28 27 27 26 25 25 24 23 23 23 22 20 20 20 20 20 19 16 14 12 12 11 11 12 12 13 14 15 16 16 16 15 15 14 14 14 14
30 30 29 28 27 26 24 24 24 24 24 24 24 23 22 20 20 19 18 17 18 19 19 19 19 18 18 18 17 17 17 18 19 19 20 20 21 22 24 25 26 26 26 26 26 26 27 26 26 26 26 26 25 23 22 22 23 22 21 21 21 21 20 19 17 15 14 13 13 12 12 13 14 14 15 16 17 17 16 15 15 16 15 15 15
30 29 29 28 27 26 25 24 23 23 23 23 22 21 20 19 19 18 17 16 17 18 19 19 19 18 17 17 17 18 19 19 19 20 20 20 22 23 25 27 28 28 28 27 27 26 26 25 25 24 24 23 22 21 21 22 21 21 20 20 20 20 20 18 16 15 14 14 14 13 13 14 15 16 17 17 17 17 17 17 17 16 16 16 16
30 30 29 29 28 28 26 25 24 23 22 21 20 20 19 19 19 18 17 17 17 17 17 18 19 18 18 17 17 18 19 19 19 19 19 19 20 22 23 23 24 24 25 25 25 26 26 25 23 22 21 20 20 21 21 21 21 20 20 21 21 21 19 17 16 16 15 15 14 14 15 16 17 17 17 18 18 17 17 17 17 17 17 17 16
30 30 29 29 29 29 27 24 23 23 23 21 20 19 19 19 18 17 17 17 17 16 16 16 18 19 19 20 19 19 20 21 21 21 22 22 22 23 22 22 21 21 21 22 22 23 23 23 21 20 20 20 20 20 20 20 20 21 21 21 21 20 19 18 17 16 16 15 15 15 16 17 18 18 18 18 18 18 18 18 18 18 17 17 17
29 29 28 28 28 28 26 23 21 21 22 21 20 20 19 18 17 16 17 17 16 16 16 17 18 19 19 20 20 21 21 23 24 24 24 24 23 22 22 21 21 19 18 18 19 20 21 21 20 20 20 20 20 21 21 20 21 21 21 21 21 20 19 17 17 16 16 16 16 17 18 18 18 19 19 19 19 19 19 18 18 18 18 17 17
28 27 27 27 27 27 24 22 20 21 22 22 22 21 20 18 18 18 18 17 17 17 17 17 18 19 18 19 20 21 21 22 22 22 22 21 20 20 20 20 20 19 18 18 18 19 19 19 19 19 20 20 20 21 20 20 20 21 21 21 20 19 18 18 17 17 17 17 18 18 18 18 19 20 20 19 19 19 19 19 19 18 18 18 18
26 26 26 26 27 26 24 22 21 21 22 23 23 22 20 20 20 19 18 17 17 17 18 18 19 19 18 19 19 19 19 19 19 18 18 18 17 17 18 18 18 18 18 18 18 18 18 19 19 19 19 20 20 20 20 20 20 21 21 21 20 19 19 18 18 18 18 18 19 19 18 19 20 21 20 20 20 20 20 19 19 19 19 19 19
25 25 25 25 26 26 25 23 22 21 22 23 23 23 21 20 19 18 17 17 17 18 19 19 20 20 19 18 18 18 17 17 16 16 16 15 15 15 15 16 16 17 17 17 17 17 17 18 19 19 19 19 19 19 19 20 20 21 21 21 20 20 19 19 19 19 19 19 19 19 19 20 21 21 21 21 21 21 20 19 19 19 20 20 20
25 25 24 25 26 27 27 25 23 22 22 22 22 21 20 18 17 17 17 17 18 19 20 20 20 20 19 17 16 16 16 16 16 15 14 14 14 14 14 14 15 16 16 16 16 16 17 17 17 18 18 18 18 18 19 20 20 21 21 20 20 20 20 20 20 19 20 20 20 21 21 21 22 22 22 21 21 20 20 20 20 20 20 20 20
25 25 24 25 26 28 28 27 25 23 22 21 20 19 18 17 18 18 18 18 19 19 19 19 19 18 17 16 15 14 14 14 14 14 14 14 14 13 14 14 14 15 16 16 16 16 16 16 17 17 17 17 18 18 19 19 20 20 20 21 21 21 20 20 20 20 21 22 23 23 22 22 22 22 22 21 21 21 21 21 21 21 21 21 21
24 25 25 25 26 27 28 27 25 22 21 19 19 19 19 19 19 19 19 19 19 18 18 19 18 17 15 13 13 12 12 12 12 12 12 13 13 14 14 14 15 15 15 15 16 16 16 17 17 17 17 17 17 18 18 19 20 20 21 21 21 21 21 21 22 23 24 24 24 23 22 22 22 22 21 21 21 21 22 22 22 22 22 21 21
23 24 24 24 24 25 27 26 23 20 19 18 18 18 18 19 19 19 19 18 18 17 17 18 17 16 14 12 11 11 11 12 12 12 13 13 14 14 15 15 15 15 16 16 16 16 16 17 17 16 16 16 17 18 19 20 20 21 21 21 21 22 22 23 24 24 25 24 24 23 23 23 22 22 22 22 22 23 23 23 23 22 22 22 21
22 23 23 23 23 24 25 25 22 20 19 19 19 18 19 19 19 19 19 18 17 16 17 17 16 15 14 13 13 13 13 13 13 13 13 14 14 14 15 15 15 15 16 16 16 16 16 15 15 16 16 17 18 19 20 21 21 22 22 22 23 23 24 24 24 24 24 24 24 24 24 24 23 23 22 22 23 23 23 23 23 23 22 22 22
20 20 21 21 21 22 23 23 21 19 19 19 19 18 18 18 19 19 18 17 17 16 16 16 16 15 14 14 13 13 13 13 13 13 13 13 14 14 14 14 14 14 14 14 14 14 15 15 15 16 17 18 19 20 20 21 22 23 23 23 23 24 24 24 25 24 24 24 24 24 24 24 24 24 23 23 24 24 24 24 24 23 22 22 23
17 18 18 19 19 19 20 20 20 18 18 18 17 17 18 18 18 18 17 16 16 16 16 16 16 15 14 13 13 13 13 13 12 12 13 13 13 13 13 13 12 13 13 13 14 14 15 16 16 17 18 19 20 20 21 22 22 23 23 23 23 24 24 24 25 24 24 25 25 24 24 24 24 24 24 24 24 25 25 25 24 23 23 23 23
16 17 17 17 18 18 17 18 17 16 16 16 16 16 16 16 16 16 16 16 16 15 15 15 14 13 13 13 12 12 12 12 12 12 12 11 11 11 11 11 12 13 13 14 15 15 16 17 18 18 19 20 20 20 21 21 21 22 22 22 23 23 24 24 24 24 24 24 24 24 24 25 25 25 25 25 25 25 26 25 24 23 23 23 24
14 15 15 16 16 16 16 16 16 15 15 15 15 15 15 15 15 15 15 15 14 14 14 14 14 13 13 12 12 11 11 11 11 11 11 10 11 11 12 12 13 14 15 16 16 17 17 18 18 18 18 19 19 20 20 20 21 21 22 22 22 22 23 23 23 23 23 24 25 24 24 24 24 24 24 24 25 25 25 25 24 23 23 24 24
Wind_Direction
261 252 249 246 244 240 238 238 240 243 246 248 250 253 257 262 267 270 271 272 274 277 278 279 278 279 278 276 273 269 268 265 256 244 239 241 245 248 250 251 253 257 257 255 251 249 250 252 256 261 259 255 257 262 265 265 263 261 255 249 245 243 241 241 242 245 240 222 209 205 204 202 205 211 216 223 232 240 247 254 259 263 265 266 267
265 257 254 251 249 248 245 244 244 245 247 249 250 252 255 261 266 269 271 274 275 276 278 279 278 278 277 276 274 269 267 266 259 246 239 240 243 247 249 250 254 256 253 251 252 252 251 253 259 260 257 256 260 263 265 265 263 260 254 248 245 243 241 238 236 235 228 215 206 202 203 205 209 215 224 233 241 246 252 255 259 263 265 266 266
278 265 260 256 253 253 252 251 251 251 251 252 253 254 256 260 263 267 270 272 274 275 276 277 278 278 277 276 274 270 265 263 258 249 240 238 240 244 246 247 252 255 253 253 256 254 252 256 258 255 255 259 261 263 265 264 262 258 253 248 245 240 235 229 228 228 222 213 208 205 205 206 210 219 227 235 243 250 256 259 261 263 263 264 266
299 283 271 264 260 258 256 254 255 256 256 256 258 258 259 261 263 266 269 270 272 274 275 275 276 277 277 276 275 273 268 262 257 251 243 238 239 241 243 245 249 253 254 256 257 254 254 256 254 252 256 259 261 263 264 264 261 255 249 246 242 235 227 224 226 226 222 216 210 206 205 205 208 215 224 234 244 252 258 260 259 260 262 264 267
309 301 286 275 268 265 262 260 258 259 261 261 261 262 262 263 264 265 267 270 272 273 274 275 275 276 277 277 275 275 271 264 258 252 243 237 238 241 244 246 248 250 252 254 255 254 255 255 252 253 256 257 259 263 265 264 259 251 245 241 236 228 221 223 226 224 223 218 208 200 198 200 204 211 223 236 246 254 258 258 256 258 261 264 269
307 306 301 290 279 273 270 269 266 264 266 267 267 267 265 265 266 267 268 269 271 272 274 275 275 276 277 277 275 274 272 266 259 251 241 236 238 240 243 246 249 251 251 251 252 254 255 254 252 253 255 256 259 264 266 262 255 247 240 234 228 223 218 217 215 212 216 214 204 197 193 194 201 213 229 243 253 258 260 258 258 260 264 269 274
306 305 305 301 294 287 281 278 277 276 275 274 273 272 270 268 268 268 269 269 271 272 273 274 276 277 277 277 275 273 272 267 259 249 239 237 239 241 243 247 250 251 252 252 253 254 254 254 254 254 255 258 262 266 264 258 249 242 235 229 225 220 212 206 203 203 205 201 196 193 192 196 207 220 237 254 262 263 260 259 259 262 268 275 282
305 306 304 301 300 298 294 291 288 287 285 282 279 276 273 271 269 269 270 271 272 274 274 274 275 275 276 276 275 273 270 266 259 248 241 239 241 243 245 247 249 251 254 256 257 256 255 255 255 256 256 258 263 265 262 255 245 236 230 226 223 216 205 201 203 204 201 196 193 193 196 207 221 233 249 263 265 262 260 261 265 268 274 282 291
306 307 303 299 299 298 296 294 292 290 289 287 283 279 275 272 270 270 270 271 273 274 274 273 273 274 275 275 274 272 270 267 261 250 243 241 243 245 247 248 250 253 255 256 255 254 255 257 257 256 255 255 257 258 257 253 245 237 229 224 219 210 201 199 202 202 197 194 195 199 206 222 234 244 256 262 261 258 257 263 270 277 285 293 299
310 309 306 304 303 299 296 292 290 289 288 288 287 283 278 274 271 270 270 271 273 274 274 273 273 274 274 274 273 272 269 267 264 254 245 242 244 247 249 250 251 252 251 252 252 251 253 255 255 254 253 250 249 250 248 245 242 239 236 230 220 207 198 197 200 199 196 196 200 207 219 231 239 248 254 254 255 255 259 267 276 284 294 300 302
311 311 309 308 304 301 298 294 292 290 288 287 287 285 280 276 272 270 270 271 273 274 274 273 274 274 275 274 273 271 269 267 265 258 248 243 244 247 249 250 250 250 249 248 247 248 250 251 252 252 250 246 241 241 240 238 236 234 233 230 221 206 197 197 199 196 193 198 207 219 230 236 240 245 248 250 254 259 268 277 286 294 300 302 303
310 311 312 310 303 298 295 293 290 288 288 287 286 286 282 277 273 271 270 272 274 275 275 275 274 275 275 274 272 271 268 265 263 259 248 241 244 247 247 249 251 251 248 245 244 246 247 248 250 250 246 241 235 232 232 231 230 227 225 221 210 198 195 198 197 193 195 203 215 225 234 240 243 244 246 252 259 269 280 288 295 299 301 301 303
311 311 312 312 306 298 293 291 288 286 287 288 287 285 282 279 276 272 270 271 274 275 275 274 274 274 274 274 273 271 267 264 262 258 247 240 243 245 245 248 252 250 246 243 244 244 244 244 246 243 240 236 230 226 225 223 220 218 213 201 191 188 189 192 192 195 203 212 222 229 236 243 244 246 251 259 271 281 289 294 297 297 297 298 303
311 311 311 312 309 301 296 294 291 289 288 289 287 286 284 281 278 273 269 270 273 275 274 273 273 274 274 274 272 268 265 262 259 255 245 238 240 244 245 247 247 245 243 243 243 242 241 242 242 240 237 233 226 221 219 215 208 200 188 184 185 186 185 188 194 204 214 221 228 235 241 245 247 251 260 272 282 288 291 294 294 293 295 300 306
310 312 311 312 311 306 300 296 294 291 290 290 287 286 285 283 279 274 271 271 273 274 273 272 272 273 272 271 268 265 262 259 254 247 240 238 240 244 244 241 239 238 241 243 242 242 241 241 241 240 237 232 226 219 213 207 197 185 178 180 184 184 184 191 203 216 225 232 241 246 247 248 252 260 272 281 285 287 288 289 290 291 296 302 307
307 310 310 310 310 308 303 299 296 292 290 289 286 285 285 284 282 278 275 274 274 272 271 271 272 273 271 267 263 261 259 256 248 239 235 239 242 242 238 235 237 241 243 242 240 240 240 240 241 240 237 233 227 216 208 200 189 181 178 178 180 183 191 204 217 227 239 250 255 254 250 253 261 269 276 279 279 281 284 286 289 293 299 306 313
303 304 305 305 305 304 302 301 299 294 289 286 285 285 285 285 283 280 277 275 274 273 273 273 273 271 267 263 260 259 257 254 245 235 235 240 242 240 237 238 242 244 242 239 237 237 238 239 239 238 235 231 221 208 198 190 184 181 180 178 180 189 202 214 225 241 259 262 258 253 250 256 265 269 270 272 275 281 285 290 295 299 305 313 318
299 297 297 299 299 298 298 300 300 297 291 286 283 284 284 283 282 279 277 275 274 273 273 271 268 265 261 259 258 256 255 254 244 235 236 242 243 242 241 241 241 238 234 233 235 238 239 238 234 231 230 223 211 197 187 182 181 182 183 184 188 197 208 223 244 262 265 259 251 248 250 256 260 263 267 271 277 284 290 295 299 303 311 318 319
297 294 293 293 292 291 293 296 298 297 293 288 283 282 281 281 279 277 275 273 272 271 269 265 261 258 256 255 254 250 246 245 241 237 238 241 242 241 240 238 236 233 230 230 233 236 237 233 225 218 217 213 199 186 180 180 183 186 188 191 197 206 224 245 263 268 261 252 246 244 248 252 254 258 266 272 277 284 289 294 304 313 320 323 320
303 297 293 290 288 288 290 292 294 294 291 288 284 281 279 278 277 275 274 272 270 267 264 260 258 255 252 249 247 243 240 239 239 238 237 237 238 236 235 235 235 234 234 234 234 233 230 223 213 207 208 204 190 180 178 181 185 189 192 197 207 224 241 258 268 264 254 246 241 239 242 248 252 258 264 268 273 281 290 304 319 325 325 324 321
310 304 298 293 290 290 290 291 292 291 289 286 283 280 278 276 275 273 270 268 265 262 260 258 255 252 249 245 240 237 237 239 240 236 231 230 231 232 234 236 236 235 236 236 234 230 223 213 203 200 200 192 182 178 180 181 184 190 196 204 220 235 249 263 267 257 246 238 233 233 238 246 252 258 262 267 276 290 308 324 331 329 326 323 319
313 308 303 298 294 292 292 292 291 290 287 285 282 279 277 274 271 268 265 262 259 258 257 255 252 250 246 241 236 235 236 239 237 230 225 225 228 235 239 240 240 238 237 236 234 228 218 206 198 194 191 184 180 181 184 184 186 193 202 213 229 243 255 264 261 248 235 227 225 230 238 246 254 261 268 279 298 317 327 330 328 324 321 318 315
312 309 305 301 298 296 294 293 291 289 287 284 280 277 273 270 267 263 260 258 256 254 252 250 248 247 244 239 236 235 236 236 232 227 225 226 231 238 242 241 241 239 236 235 232 223 211 201 195 190 186 184 184 185 186 188 193 201 210 222 236 249 258 260 251 235 222 219 225 232 238 246 257 269 282 300 318 326 324 318 315 313 311 312 313
312 311 307 303 300 298 296 294 292 289 286 282 278 274 270 267 264 261 258 255 253 250 249 248 246 243 241 238 236 236 235 232 228 226 227 230 233 238 239 237 234 230 226 225 223 213 202 196 191 187 185 185 185 185 187 193 202 209 219 230 242 253 259 253 237 222 216 220 228 236 241 248 260 274 291 308 313 314 312 310 310 310 309 311 312
314 312 309 305 302 299 297 294 292 288 284 280 275 272 269 266 262 259 256 252 250 247 246 245 242 239 238 237 235 234 232 229 226 225 227 230 232 233 231 224 215 209 203 200 200 196 191 187 185 184 183 183 183 186 193 201 209 217 226 237 250 258 256 241 223 215 216 222 228 236 242 247 255 269 286 300 304 307 309 309 310 312 312 311 309
314 311 308 306 303 301 298 295 291 287 282 277 273 268 265 262 259 256 252 248 246 244 242 239 236 235 235 235 233 231 229 226 224 222 222 222 221 219 213 204 194 188 183 180 180 182 181 180 180 180 180 182 187 194 201 207 214 222 232 244 256 258 244 227 216 214 219 225 228 231 236 241 251 269 287 298 303 307 308 309 311 313 311 308 307
312 310 308 305 302 301 298 294 290 285 279 274 270 264 259 254 250 248 246 243 241 238 236 235 235 235 234 232 230 228 225 223 221 218 215 213 210 205 198 190 182 176 173 172 173 176 178 177 178 179 182 188 195 201 206 213 218 226 238 249 253 246 230 217 212 215 221 225 226 227 232 240 253 277 293 299 303 306 306 307 308 307 304 303 305
309 308 306 304 301 299 296 292 287 282 276 270 264 259 254 250 246 243 242 241 240 239 236 233 232 234 235 232 227 223 220 218 217 217 215 211 207 202 194 187 181 176 174 173 174 177 178 178 181 184 189 194 199 204 209 215 220 229 241 249 244 233 221 212 210 216 221 222 223 228 233 242 260 282 293 298 301 301 300 300 299 298 298 299 301
306 305 303 301 299 297 295 291 286 279 272 266 259 253 247 243 240 237 233 231 232 235 235 232 230 232 233 231 228 223 220 218 217 217 217 213 211 209 202 194 186 179 176 176 176 178 180 183 185 189 193 198 202 207 211 216 223 233 243 244 235 225 217 214 216 220 222 222 224 229 235 246 267 282 289 294 297 295 294 294 293 293 295 297 301
304 303 301 298 297 295 292 288 284 276 269 262 255 247 238 230 225 223 222 221 222 224 226 227 229 230 229 227 225 223 225 225 219 213 210 207 205 206 203 197 188 181 179 180 180 181 183 186 189 193 197 202 207 211 215 221 231 241 244 237 227 219 215 216 219 220 221 223 225 230 238 251 268 278 283 289 291 290 290 291 289 290 293 296 300
303 301 300 297 294 291 288 285 280 273 267 260 252 246 237 225 216 212 212 214 216 217 218 216 214 214 217 218 211 202 203 212 212 204 197 193 191 191 191 189 185 182 181 182 184 186 188 190 194 198 203 207 212 217 223 231 241 247 241 230 221 217 217 219 221 221 222 224 226 232 242 255 266 273 279 283 286 286 286 286 285 287 290 292 294
302 300 298 294 290 287 284 280 275 269 264 258 252 245 237 226 217 210 207 209 211 212 212 209 202 195 193 195 196 191 185 188 193 190 182 180 180 179 180 180 181 181 182 184 188 192 194 197 200 203 208 213 218 224 233 241 245 242 232 224 220 219 219 220 222 223 225 226 229 237 247 255 262 269 275 279 282 284 284 284 284 285 287 288 289
300 297 294 289 285 283 280 276 271 266 261 257 252 246 238 230 222 213 204 202 202 202 201 197 189 181 174 173 183 187 177 171 176 178 175 174 175 174 174 176 178 180 185 188 193 196 199 203 207 211 215 221 226 233 241 243 239 230 224 222 221 221 221 222 223 224 226 228 232 239 247 255 261 268 273 276 279 281 282 283 284 283 284 286 285
297 294 289 284 280 278 277 274 271 265 260 255 251 246 240 234 227 217 208 200 194 188 183 177 172 169 165 163 168 172 166 162 167 171 172 174 175 175 175 176 179 184 190 195 199 203 206 210 214 219 224 229 235 239 240 235 227 221 219 218 218 219 222 224 226 228 230 232 236 243 251 258 264 269 272 274 277 278 279 280 281 280 280 280 280
290 288 285 281 277 274 273 273 271 267 262 257 253 249 243 237 229 221 215 208 196 183 173 167 165 166 166 164 162 161 161 162 165 169 173 176 178 179 181 182 185 190 195 199 204 209 213 217 221 226 231 234 236 235 231 225 222 220 219 219 221 223 226 227 228 231 234 237 243 249 255 261 266 268 271 273 275 277 278 278 278 277 277 277 278
286 283 281 279 277 274 272 270 269 267 262 257 253 247 240 234 229 224 217 209 197 184 173 168 167 168 170 170 165 162 163 165 167 171 175 179 182 186 189 191 194 196 199 203 208 213 218 222 226 230 232 231 228 224 221 220 221 221 222 224 226 228 230 231 232 235 239 244 250 254 259 263 266 268 271 273 274 275 276 275 274 274 274 275 277
286 281 278 276 274 271 269 267 266 263 256 248 243 239 234 230 228 224 216 206 196 188 182 177 175 175 176 177 174 171 170 171 173 176 179 184 190 195 198 201 203 205 207 210 214 218 220 221 222 223 224 222 220 219 218 219 220 222 224 227 229 230 232 234 236 240 245 249 254 258 261 264 266 268 271 273 274 274 273 273 273 273 274 275 277
284 279 274 272 270 268 265 263 260 255 248 240 233 227 223 222 220 218 213 207 201 198 195 192 189 187 185 183 181 179 177 178 181 184 186 190 197 200 202 205 210 212 213 215 218 220 221 220 218 216 214 214 216 218 219 220 223 225 228 230 232 234 236 239 242 247 252 255 258 261 263 265 267 270 271 272 272 271 270 270 270 271 273 275 277
280 276 271 268 266 263 259 256 252 246 242 236 228 219 213 209 206 206 209 211 210 209 207 204 201 199 194 189 185 184 185 186 189 191 193 196 200 202 203 207 211 213 214 217 220 221 221 220 217 215 213 214 215 217 220 223 226 229 232 235 237 239 242 245 250 253 256 259 261 262 264 267 269 270 270 271 271 269 268 268 269 270 272 275 277
275 272 269 264 260 255 250 245 240 236 234 231 225 217 210 204 201 204 208 212 214 214 214 212 210 206 201 196 193 192 192 195 196 198 200 202 205 206 207 209 211 212 212 215 217 218 218 217 217 217 217 217 217 219 223 226 230 233 237 239 242 244 247 250 253 256 258 261 262 264 266 269 269 270 271 271 270 269 268 269 270 271 273 274 275
270 267 265 261 256 250 243 235 229 226 227 227 223 217 213 210 209 210 213 216 218 217 216 214 212 207 202 200 200 201 202 204 205 206 208 211 213 214 214 214 215 214 214 214 216 216 216 216 217 218 219 219 221 224 229 233 236 240 242 244 246 249 251 254 256 258 260 262 264 266 269 269 269 270 272 270 268 268 268 270 271 273 273 274 275
263 261 260 256 251 246 238 228 220 216 218 220 221 220 217 215 214 215 218 221 221 219 216 213 209 205 203 203 205 207 209 211 213 214 214 216 217 218 218 217 217 216 217 217 219 220 221 222 222 223 224 226 229 232 236 240 243 245 247 249 251 254 256 258 259 261 263 265 267 269 269 268 269 270 270 269 269 270 270 271 271 271 272 273 274
258 255 254 250 247 244 236 225 216 212 212 215 219 220 218 216 218 220 222 223 223 221 218 214 209 206 205 205 207 209 210 213 216 217 216 216 216 216 216 217 218 218 220 223 225 227 229 230 229 230 231 234 237 241 243 246 249 251 253 256 257 259 261 262 264 266 267 268 267 267 267 268 269 270 270 271 272 272 273 272 271 271 271 272 273
257 253 249 244 243 243 238 228 220 216 213 212 213 214 214 216 219 220 221 223 224 224 223 220 217 214 211 210 211 213 215 218 220 219 218 219 220 220 222 223 224 224 227 230 233 235 235 234 234 235 237 240 243 247 249 252 255 257 259 260 261 262 264 265 266 267 266 266 266 267 268 269 270 271 272 274 275 274 274 273 272 271 271 271 272
257 253 248 244 242 242 238 231 224 220 215 210 210 212 215 217 218 218 219 222 224 224 224 223 221 219 217 218 220 222 223 224 223 222 222 224 225 227 228 228 228 230 232 235 237 237 237 236 236 238 241 244 248 251 254 257 259 260 261 262 264 265 266 266 266 266 267 268 270 271 271 271 273 274 276 276 276 275 274 273 272 271 272 272 274
255 251 246 242 240 240 236 229 221 214 208 206 210 216 220 222 221 220 220 221 220 220 221 223 222 221 220 222 224 224 222 220 220 221 225 227 228 228 229 229 230 233 235 237 239 239 239 239 241 243 247 251 255 258 260 261 262 264 265 266 268 268 267 266 266 267 269 270 272 273 274 275 276 277 276 276 275 274 274 273 272 272 272 273 274
253 248 242 236 234 236 234 228 218 207 202 204 209 217 222 224 223 222 220 218 217 216 217 220 222 222 220 220 221 220 219 221 223 224 226 227 227 227 228 230 233 236 238 239 240 241 242 245 249 252 256 258 260 261 263 264 266 268 269 269 269 268 267 267 268 269 271 273 274 276 277 277 276 276 275 275 275 275 274 274 273 272 272 273 273
248 242 237 232 228 228 229 225 216 206 203 206 210 215 220 223 224 224 221 218 215 213 214 216 219 220 219 218 218 218 222 226 227 226 225 225 225 228 231 234 237 240 242 243 246 248 251 254 257 258 260 262 263 265 266 267 268 268 268 268 268 269 269 271 273 274 276 277 277 277 277 277 277 277 276 276 275 275 274 273 272 271 271 271 272
239 233 230 226 220 218 220 219 214 207 205 206 209 212 216 220 223 222 220 217 214 212 213 214 216 219 219 218 218 220 223 226 226 226 227 228 231 234 238 241 244 247 249 251 254 255 257 259 260 261 263 264 264 265 266 266 267 268 269 270 272 273 274 276 277 278 278 279 279 278 278 278 278 278 277 277 276 275 274 273 272 272 271 271 271
231 224 219 214 208 205 207 210 209 206 203 204 207 209 213 216 218 217 215 214 213 212 212 213 214 215 216 216 217 220 222 224 227 232 235 238 242 245 248 250 252 254 255 257 258 259 260 261 262 262 263 264 265 266 268 270 272 274 275 276 277 278 278 279 279 280 280 280 279 279 278 278 279 278 278 277 276 274 274 274 273 272 271 270 270
222 214 208 201 195 192 194 197 199 199 199 201 203 205 207 210 212 212 211 210 210 209 210 211 210 211 212 214 217 221 226 230 235 239 242 246 249 251 253 254 255 256 257 258 259 260 261 262 265 267 269 271 274 275 277 278 279 279 279 280 280 280 281 281 281 281 281 280 280 280 279 279 279 279 278 277 276 275 274 274 273 272 271 270 270
Height
1501 1500 1500 1500 1499 1498 1498 1498 1497 1497 1497 1496 1495 1495 1495 1495 1494 1494 1493 1493 1492 1492 1491 1491 1490 1490 1489 1488 1487 1486 1486 1487 1487 1489 1490 1491 1492 1493 1494 1496 1495 1495 1496 1496 1497 1498 1499 1499 1500 1501 1503 1503 1504 1505 1505 1505 1505 1505 1506 1507 1508 1510 1511 1512 1514 1516 1518 1519 1521 1523 1525 1527 1529 1531 1531 1530 1530 1530 1531 1531 1531 1532 1532 1533 1533
1499 1499 1498 1497 1497 1497 1496 1496 1495 1494 1493 1492 1491 1491 1491 1491 1491 1490 1490 1489 1489 1488 1488 1487 1487 1486 1485 1484 1483 1483 1482 1482 1482 1483 1485 1486 1487 1488 1490 1491 1491 1492 1492 1493 1494 1494 1495 1495 1496 1498 1499 1499 1499 1500 1500 1501 1501 1501 1501 1503 1504 1506 1508 1509 1510 1513 1515 1516 1518 1520 1523 1525 1527 1528 1529 1529 1529 1528 1528 1528 1528 1528 1529 1530 1530
1498 1497 1496 1495 1495 1494 1494 1494 1492 1491 1490 1489 1489 1488 1488 1487 1487 1486 1486 1486 1486 1485 1484 1483 1483 1482 1481 1481 1480 1479 1478 1478 1478 1478 1479 1481 1482 1483 1485 1486 1487 1487 1488 1489 1490 1491 1491 1491 1492 1494 1494 1494 1495 1495 1495 1496 1496 1497 1497 1499 1501 1503 1505 1506 1507 1510 1512 1514 1516 1517 1520 1522 1524 1525 1526 1527 1527 1527 1526 1525 1525 1525 1526 1527 1527
1495 1494 1493 1493 1492 1491 1491 1490 1489 1488 1487 1486 1485 1485 1485 1484 1483 1483 1482 1482 1482 1482 1481 1480 1479 1478 1477 1477 1476 1476 1475 1474 1474 1474 1475 1476 1478 1479 1481 1482 1482 1483 1484 1485 1485 1486 1487 1487 1488 1489 1490 1490 1490 1490 1491 1491 1492 1492 1494 1496 1498 1500 1502 1503 1505 1507 1510 1511 1514 1516 1518 1520 1521 1521 1522 1523 1524 1524 1524 1523 1522 1523 1523 1524 1524
1492 1491 1490 1489 1489 1488 1488 1487 1486 1484 1484 1483 1482 1482 1481 1481 1480 1479 1479 1478 1478 1478 1477 1476 1475 1474 1473 1473 1473 1472 1471 1470 1470 1470 1471 1472 1474 1475 1476 1477 1478 1479 1480 1480 1481 1482 1482 1483 1484 1485 1485 1485 1485 1486 1486 1487 1487 1488 1490 1493 1495 1498 1500 1502 1504 1507 1509 1510 1512 1514 1516 1517 1518 1519 1519 1520 1520 1521 1521 1520 1520 1520 1520 1521 1520
1488 1487 1486 1484 1484 1484 1484 1484 1482 1481 1481 1480 1479 1479 1478 1477 1476 1476 1475 1474 1474 1474 1473 1472 1471 1470 1470 1469 1469 1468 1468 1467 1466 1466 1468 1469 1470 1471 1472 1473 1473 1474 1475 1476 1477 1477 1478 1478 1479 1480 1480 1481 1481 1481 1482 1483 1484 1485 1488 1490 1492 1494 1497 1501 1504 1507 1509 1511 1512 1512 1513 1514 1515 1515 1516 1516 1517 1517 1518 1518 1517 1518 1517 1517 1517
1483 1482 1481 1480 1479 1479 1480 1480 1479 1478 1478 1477 1476 1475 1474 1473 1473 1472 1471 1470 1469 1469 1468 1468 1467 1467 1466 1465 1464 1464 1464 1463 1463 1463 1464 1465 1466 1467 1468 1469 1469 1470 1471 1472 1472 1473 1473 1474 1474 1475 1476 1476 1477 1478 1479 1479 1481 1483 1485 1487 1489 1491 1495 1499 1502 1506 1508 1510 1510 1510 1511 1511 1512 1512 1512 1513 1513 1514 1514 1514 1514 1515 1515 1514 1514
1478 1477 1477 1475 1475 1475 1475 1475 1474 1474 1474 1473 1472 1471 1470 1470 1469 1468 1467 1466 1465 1464 1464 1463 1463 1463 1462 1461 1460 1460 1460 1459 1459 1459 1460 1462 1462 1463 1464 1465 1465 1466 1467 1467 1468 1468 1469 1469 1470 1471 1472 1473 1474 1474 1475 1476 1478 1480 1482 1484 1486 1489 1492 1496 1499 1503 1505 1506 1507 1508 1508 1508 1508 1509 1509 1510 1510 1511 1511 1511 1511 1512 1511 1511 1510
1473 1473 1472 1471 1471 1471 1471 1470 1470 1469 1468 1467 1467 1466 1465 1465 1464 1463 1463 1462 1461 1459 1459 1458 1458 1458 1457 1456 1456 1455 1455 1455 1455 1455 1457 1458 1459 1460 1461 1461 1462 1462 1463 1464 1464 1465 1465 1466 1466 1467 1468 1469 1470 1471 1472 1474 1475 1477 1479 1481 1484 1487 1490 1493 1496 1499 1501 1502 1503 1504 1504 1505 1505 1506 1506 1506 1507 1507 1508 1508 1508 1508 1507 1507 1506
1470 1469 1467 1466 1466 1466 1465 1465 1464 1463 1462 1462 1461 1461 1460 1459 1459 1458 1458 1457 1456 1455 1454 1454 1453 1453 1453 1452 1452 1451 1451 1451 1451 1452 1453 1455 1456 1457 1457 1458 1458 1459 1459 1460 1460 1461 1461 1462 1462 1463 1464 1465 1466 1467 1469 1471 1472 1475 1477 1479 1481 1484 1487 1491 1494 1497 1498 1499 1500 1501 1501 1502 1503 1503 1503 1503 1504 1504 1505 1505 1505 1504 1503 1503 1502
1468 1466 1465 1463 1462 1461 1460 1459 1458 1457 1456 1456 1456 1455 1454 1453 1453 1453 1453 1452 1452 1450 1449 1449 1449 1448 1448 1447 1447 1446 1446 1447 1448 1448 1449 1451 1453 1453 1454 1454 1455 1455 1455 1455 1456 1456 1457 1457 1458 1459 1460 1460 1461 1463 1465 1468 1469 1472 1474 1476 1479 1482 1486 1490 1492 1494 1495 1497 1498 1498 1498 1499 1500 1500 1501 1500 1501 1501 1502 1502 1501 1500 1500 1499 1498
1466 1464 1463 1461 1459 1457 1456 1454 1453 1452 1451 1451 1450 1449 1448 1447 1447 1447 1447 1448 1447 1446 1445 1445 1444 1444 1444 1443 1442 1442 1442 1443 1443 1444 1445 1447 1448 1449 1450 1450 1451 1451 1451 1451 1452 1452 1453 1453 1454 1455 1455 1457 1458 1460 1462 1465 1467 1470 1473 1475 1479 1482 1486 1488 1489 1490 1492 1493 1495 1496 1496 1496 1497 1497 1497 1498 1498 1499 1499 1498 1498 1497 1497 1496 1495
1464 1462 1460 1458 1456 1454 1453 1451 1449 1447 1447 1446 1445 1443 1442 1441 1441 1442 1442 1442 1442 1441 1440 1440 1439 1439 1439 1438 1438 1437 1438 1439 1439 1439 1440 1442 1444 1445 1446 1446 1447 1447 1447 1447 1448 1448 1449 1449 1450 1450 1452 1453 1455 1457 1459 1462 1465 1469 1472 1475 1478 1480 1483 1485 1486 1488 1490 1491 1492 1493 1493 1493 1494 1494 1494 1495 1495 1495 1495 1495 1495 1494 1494 1493 1492
1461 1459 1457 1455 1453 1450 1449 1446 1444 1443 1442 1441 1439 1438 1437 1436 1436 1436 1436 1436 1435 1435 1435 1435 1434 1434 1434 1434 1433 1433 1433 1434 1435 1436 1437 1438 1440 1441 1442 1442 1443 1443 1443 1444 1444 1445 1445 1446 1446 1447 1448 1449 1451 1454 1456 1459 1462 1466 1469 1472 1475 1478 1480 1482 1484 1486 1488 1489 1489 1489 1490 1490 1491 1491 1492 1492 1492 1492 1492 1492 1492 1492 1491 1490 1489
1458 1456 1454 1451 1449 1447 1445 1442 1440 1438 1437 1436 1434 1433 1432 1431 1431 1431 1431 1430 1430 1429 1429 1429 1429 1429 1429 1429 1428 1428 1429 1430 1431 1432 1433 1435 1436 1437 1437 1438 1438 1439 1440 1441 1441 1442 1443 1443 1443 1444 1445 1446 1448 1451 1453 1456 1459 1462 1466 1470 1474 1476 1478 1480 1482 1484 1486 1487 1487 1487 1487 1487 1488 1488 1489 1489 1489 1489 1489 1489 1490 1489 1488 1487 1487
1454 1452 1450 1448 1445 1443 1441 1438 1436 1434 1432 1431 1429 1428 1428 1427 1427 1427 1426 1425 1424 1424 1424 1424 1424 1424 1424 1424 1423 1423 1424 1425 1426 1428 1429 1431 1432 1433 1433 1434 1435 1436 1436 1437 1438 1439 1440 1440 1441 1441 1442 1444 1446 1449 1451 1454 1458 1461 1464 1467 1471 1474 1477 1479 1481 1482 1483 1484 1484 1484 1484 1484 1485 1485 1486 1486 1486 1486 1486 1487 1487 1486 1485 1484 1483
1449 1447 1445 1443 1441 1439 1436 1434 1433 1431 1429 1427 1425 1424 1424 1423 1423 1422 1421 1420 1420 1419 1419 1419 1420 1420 1420 1420 1419 1419 1420 1422 1422 1424 1426 1427 1428 1429 1430 1431 1432 1432 1433 1434 1435 1435 1436 1437 1438 1439 1440 1443 1445 1448 1450 1454 1458 1462 1464 1466 1468 1471 1475 1477 1478 1479 1481 1481 1481 1482 1482 1482 1482 1482 1483 1483 1483 1483 1484 1484 1483 1482 1482 1481 1479
1444 1442 1440 1438 1436 1434 1432 1430 1428 1426 1425 1423 1421 1421 1420 1419 1418 1418 1417 1416 1415 1415 1416 1415 1415 1416 1416 1415 1416 1416 1417 1418 1419 1420 1422 1423 1424 1425 1426 1427 1428 1428 1429 1430 1431 1432 1433 1434 1435 1437 1439 1441 1443 1446 1449 1454 1458 1461 1464 1466 1468 1470 1473 1475 1476 1477 1478 1479 1479 1479 1479 1479 1479 1480 1480 1481 1481 1481 1480 1480 1480 1479 1478 1478 1476
1439 1437 1435 1434 1432 1430 1428 1426 1424 1422 1420 1418 1417 1416 1415 1414 1414 1413 1413 1412 1412 1412 1412 1411 1411 1412 1412 1412 1412 1413 1414 1415 1416 1417 1418 1420 1420 1422 1423 1423 1424 1425 1426 1427 1428 1429 1430 1431 1432 1434 1436 1438 1441 1444 1449 1454 1458 1461 1464 1466 1468 1470 1471 1473 1474 1475 1476 1477 1477 1477 1477 1477 1477 1478 1478 1478 1478 1478 1478 1477 1477 1476 1475 1475 1474
1435 1433 1431 1429 1427 1426 1424 1422 1420 1418 1416 1414 1413 1412 1411 1410 1409 1409 1409 1408 1408 1408 1408 1408 1408 1408 1408 1409 1409 1410 1411 1412 1413 1414 1415 1416 1417 1418 1419 1420 1421 1423 1424 1424 1425 1426 1427 1429 1430 1433 1435 1438 1441 1446 1450 1454 1457 1460 1463 1465 1467 1469 1470 1471 1473 1474 1474 1475 1475 1475 1474 1475 1475 1476 1476 1476 1476 1475 1475 1474 1473 1473 1472 1472 1471
1432 1430 1427 1425 1423 1422 1420 1418 1415 1414 1412 1411 1409 1408 1406 1405 1405 1404 1404 1404 1404 1404 1404 1404 1404 1404 1405 1406 1406 1407 1408 1409 1410 1411 1412 1413 1414 1415 1417 1418 1419 1420 1420 1421 1422 1423 1424 1426 1429 1432 1435 1438 1442 1447 1451 1454 1456 1459 1461 1463 1466 1467 1469 1470 1471 1472 1472 1473 1472 1472 1473 1473 1473 1474 1474 1474 1473 1472 1472 1471 1470 1470 1469 1469 1468
1429 1426 1423 1421 1420 1418 1416 1414 1412 1410 1409 1407 1405 1404 1403 1401 1400 1400 1400 1400 1400 1400 1400 1400 1401 1401 1402 1402 1403 1405 1405 1406 1407 1408 1409 1410 1412 1413 1415 1415 1416 1417 1417 1418 1419 1421 1423 1425 1428 1431 1435 1438 1443 1447 1451 1453 1455 1458 1460 1462 1464 1466 1467 1468 1469 1470 1470 1470 1470 1471 1471 1471 1471 1471 1471 1471 1470 1469 1468 1468 1468 1467 1467 1466 1465
1425 1422 1420 1417 1415 1414 1412 1410 1408 1406 1405 1403 1402 1401 1400 1399 1398 1397 1396 1396 1396 1396 1396 1396 1397 1398 1399 1400 1401 1402 1403 1403 1405 1405 1406 1408 1409 1411 1411 1412 1413 1414 1415 1416 1417 1420 1422 1424 1427 1430 1434 1438 1443 1447 1450 1452 1454 1457 1459 1461 1462 1464 1465 1466 1467 1468 1468 1468 1468 1469 1469 1469 1469 1469 1469 1468 1467 1466 1466 1466 1466 1466 1465 1464 1463
1420 1418 1415 1413 1411 1409 1407 1406 1404 1402 1401 1399 1398 1397 1397 1396 1395 1394 1393 1392 1392 1392 1393 1393 1394 1395 1396 1397 1399 1400 1400 1401 1402 1404 1405 1406 1407 1408 1409 1410 1411 1412 1413 1415 1416 1418 1421 1423 1426 1430 1434 1438 1443 1446 1449 1451 1454 1456 1458 1459 1460 1462 1463 1464 1465 1465 1466 1466 1466 1467 1467 1467 1467 1467 1466 1465 1465 1465 1465 1465 1465 1464 1463 1462 1461
1416 1414 1411 1409 1407 1405 1403 1401 1400 1398 1397 1395 1394 1394 1393 1393 1392 1392 1391 1390 1390 1390 1390 1391 1392 1393 1394 1395 1397 1397 1398 1400 1401 1402 1403 1404 1405 1406 1407 1409 1410 1411 1412 1413 1415 1418 1420 1423 1426 1430 1434 1439 1442 1445 1448 1450 1452 1454 1456 1457 1459 1460 1461 1462 1463 1463 1463 1464 1464 1464 1464 1465 1465 1464 1464 1463 1463 1463 1463 1462 1462 1462 1461 1460 1459
1413 1410 1407 1405 1403 1401 1399 1397 1396 1394 1393 1392 1390 1390 1389 1389 1389 1389 1388 1388 1388 1388 1389 1389 1390 1391 1392 1393 1395 1396 1397 1398 1399 1400 1401 1402 1404 1405 1406 1407 1409 1410 1412 1414 1416 1418 1421 1423 1427 1431 1435 1439 1442 1445 1447 1449 1451 1453 1454 1455 1457 1458 1459 1460 1460 1460 1461 1462 1462 1462 1462 1462 1462 1461 1461 1461 1460 1460 1460 1460 1459 1459 1458 1457 1457
1409 1407 1404 1401 1399 1397 1396 1394 1392 1391 1390 1388 1387 1387 1386 1386 1386 1386 1386 1386 1386 1386 1387 1388 1389 1390 1391 1391 1392 1393 1395 1396 1398 1399 1400 1401 1402 1404 1405 1406 1408 1409 1412 1413 1415 1418 1420 1424 1428 1431 1435 1438 1441 1443 1445 1447 1449 1451 1452 1453 1454 1455 1457 1457 1457 1458 1459 1459 1459 1459 1459 1459 1459 1458 1458 1458 1458 1458 1457 1457 1456 1456 1456 1455 1454
1406 1403 1401 1398 1396 1394 1393 1391 1390 1389 1387 1386 1385 1384 1384 1384 1384 1384 1384 1384 1385 1385 1385 1385 1387 1388 1389 1390 1390 1391 1392 1394 1395 1397 1398 1400 1401 1402 1404 1405 1407 1409 1411 1412 1415 1417 1420 1423 1426 1430 1433 1435 1438 1440 1443 1445 1447 1448 1449 1450 1452 1453 1454 1454 1455 1456 1456 1456 1456 1457 1456 1456 1455 1455 1455 1455 1455 1455 1454 1454 1454 1454 1453 1453 1452
1403 1400 1398 1395 1393 1390 1389 1389 1388 1387 1385 1384 1383 1382 1382 1381 1381 1382 1383 1383 1383 1384 1384 1384 1385 1387 1388 1388 1389 1389 1390 1391 1393 1395 1398 1399 1401 1402 1403 1405 1406 1408 1410 1412 1414 1417 1419 1422 1425 1428 1431 1433 1436 1438 1440 1442 1444 1446 1447 1448 1449 1450 1451 1452 1452 1453 1454 1454 1454 1454 1453 1453 1453 1452 1452 1452 1452 1452 1452 1451 1451 1451 1451 1450 1448
1400 1397 1395 1393 1391 1388 1386 1386 1387 1386 1385 1383 1382 1381 1380 1379 1379 1379 1380 1381 1382 1382 1382 1383 1384 1385 1386 1387 1387 1389 1389 1389 1391 1394 1396 1398 1400 1402 1403 1405 1407 1408 1411 1413 1415 1417 1419 1422 1425 1427 1430 1432 1434 1436 1438 1440 1442 1443 1444 1446 1447 1448 1449 1449 1450 1451 1451 1451 1451 1451 1450 1450 1450 1450 1450 1450 1449 1449 1449 1449 1449 1448 1447 1446 1445
1397 1394 1393 1392 1389 1386 1384 1384 1384 1385 1385 1383 1382 1380 1379 1377 1377 1377 1377 1378 1379 1380 1381 1381 1382 1384 1385 1386 1386 1387 1388 1389 1390 1392 1395 1397 1399 1401 1403 1405 1407 1409 1411 1414 1416 1418 1420 1423 1425 1427 1430 1432 1434 1436 1438 1439 1440 1441 1442 1444 1445 1445 1446 1447 1448 1448 1449 1449 1448 1448 1447 1447 1447 1447 1447 1447 1447 1447 1447 1446 1446 1445 1444 1443 1442
1394 1391 1391 1390 1388 1386 1384 1382 1382 1383 1383 1383 1382 1381 1379 1377 1375 1375 1375 1376 1377 1378 1380 1381 1381 1383 1384 1385 1386 1387 1387 1388 1390 1392 1394 1396 1398 1400 1402 1404 1407 1410 1412 1415 1417 1419 1421 1423 1425 1427 1429 1431 1433 1435 1436 1437 1439 1440 1441 1442 1443 1443 1444 1445 1445 1446 1446 1446 1445 1445 1445 1445 1445 1445 1445 1445 1445 1445 1444 1444 1443 1442 1441 1441 1440
1391 1389 1388 1387 1386 1385 1384 1382 1381 1381 1382 1382 1382 1382 1380 1378 1376 1375 1374 1375 1376 1377 1378 1380 1381 1383 1384 1385 1387 1387 1387 1387 1389 1392 1394 1396 1397 1399 1401 1404 1407 1409 1412 1414 1417 1419 1421 1423 1425 1427 1428 1430 1432 1433 1434 1435 1437 1438 1439 1441 1441 1442 1443 1443 1443 1443 1443 1442 1442 1442 1442 1443 1443 1443 1443 1443 1442 1442 1441 1441 1440 1439 1439 1438 1437
1388 1386 1385 1384 1384 1383 1382 1381 1380 1380 1380 1381 1382 1382 1382 1381 1379 1377 1376 1375 1375 1376 1377 1378 1380 1382 1384 1385 1386 1387 1388 1388 1390 1392 1394 1396 1397 1399 1401 1403 1406 1409 1411 1414 1416 1418 1420 1422 1423 1425 1426 1428 1429 1431 1432 1433 1435 1436 1438 1439 1440 1440 1440 1440 1441 1441 1440 1439 1440 1440 1440 1440 1440 1440 1440 1440 1440 1439 1438 1438 1437 1437 1436 1436 1435
1386 1384 1383 1382 1381 1381 1380 1380 1379 1378 1379 1379 1380 1381 1382 1382 1382 1381 1379 1377 1376 1377 1377 1378 1380 1382 1384 1385 1386 1387 1388 1389 1390 1392 1394 1396 1397 1399 1400 1401 1403 1406 1408 1411 1413 1416 1418 1419 1421 1422 1424 1425 1427 1428 1430 1431 1433 1435 1436 1437 1437 1437 1438 1438 1438 1438 1437 1437 1437 1437 1437 1437 1437 1438 1438 1437 1437 1436 1435 1435 1435 1434 1434 1433 1432
1382 1382 1381 1380 1379 1379 1378 1378 1377 1376 1376 1378 1379 1380 1381 1382 1382 1382 1381 1380 1379 1379 1380 1380 1382 1384 1386 1386 1386 1387 1388 1390 1391 1393 1394 1396 1397 1398 1399 1400 1401 1404 1406 1409 1411 1413 1415 1417 1418 1420 1421 1423 1424 1426 1428 1430 1431 1433 1434 1435 1435 1435 1436 1435 1435 1434 1434 1434 1434 1434 1434 1434 1435 1435 1435 1434 1434 1433 1432 1432 1432 1432 1431 1430 1429
1378 1378 1378 1377 1377 1376 1376 1376 1375 1375 1375 1375 1376 1378 1379 1380 1381 1382 1382 1382 1382 1381 1382 1382 1384 1385 1387 1387 1388 1389 1390 1391 1393 1394 1395 1397 1398 1398 1399 1400 1402 1404 1406 1408 1410 1411 1413 1414 1416 1417 1419 1420 1422 1424 1426 1427 1429 1430 1431 1432 1432 1433 1433 1432 1432 1431 1431 1431 1431 1431 1431 1432 1432 1432 1431 1431 1430 1430 1430 1429 1429 1428 1428 1427 1426
1374 1373 1373 1374 1374 1374 1373 1373 1373 1374 1374 1374 1374 1375 1376 1378 1379 1380 1382 1382 1383 1383 1383 1384 1386 1387 1387 1387 1388 1389 1390 1391 1393 1394 1395 1396 1396 1397 1398 1399 1401 1403 1405 1407 1409 1410 1411 1413 1414 1415 1416 1418 1420 1422 1423 1425 1426 1427 1428 1429 1430 1430 1430 1429 1429 1429 1429 1428 1428 1429 1429 1429 1429 1429 1428 1428 1427 1427 1427 1426 1426 1425 1425 1424 1423
1370 1369 1369 1370 1370 1371 1371 1370 1370 1372 1373 1374 1374 1374 1374 1375 1377 1379 1381 1382 1383 1383 1383 1385 1387 1388 1388 1388 1388 1389 1390 1391 1391 1392 1393 1394 1394 1395 1396 1398 1400 1402 1404 1405 1407 1408 1409 1411 1412 1413 1414 1416 1418 1419 1421 1422 1423 1424 1425 1426 1427 1427 1427 1427 1426 1426 1426 1426 1426 1426 1426 1426 1426 1425 1425 1425 1424 1424 1424 1423 1423 1422 1422 1421 1420
1366 1365 1365 1366 1367 1367 1367 1367 1368 1369 1371 1373 1373 1373 1374 1374 1375 1377 1379 1381 1381 1382 1383 1385 1387 1388 1389 1389 1389 1389 1389 1390 1391 1392 1392 1393 1393 1394 1396 1397 1399 1400 1402 1404 1405 1406 1407 1409 1410 1411 1413 1414 1416 1417 1419 1420 1421 1422 1423 1423 1424 1424 1424 1424 1424 1423 1423 1423 1423 1423 1423 1423 1423 1422 1422 1422 1421 1421 1420 1420 1420 1419 1419 1418 1417
1363 1362 1362 1363 1364 1364 1364 1364 1364 1366 1369 1371 1372 1373 1374 1375 1376 1377 1379 1380 1380 1381 1382 1384 1386 1387 1388 1388 1388 1389 1389 1390 1391 1392 1392 1393 1393 1394 1395 1396 1398 1399 1401 1402 1403 1405 1406 1407 1408 1410 1411 1412 1414 1415 1416 1417 1418 1419 1420 1421 1421 1421 1421 1421 1421 1420 1420 1420 1420 1420 1420 1420 1419 1419 1419 1418 1418 1418 1417 1417 1417 1416 1416 1415 1414
1359 1358 1359 1360 1361 1362 1362 1362 1362 1363 1365 1368 1370 1371 1373 1375 1376 1377 1379 1379 1380 1381 1382 1383 1385 1386 1387 1387 1388 1389 1390 1391 1391 1392 1392 1393 1393 1394 1394 1395 1397 1398 1400 1401 1402 1404 1405 1406 1407 1408 1409 1411 1412 1413 1414 1415 1416 1417 1418 1418 1418 1418 1418 1418 1418 1417 1417 1417 1417 1417 1417 1416 1416 1415 1415 1415 1415 1414 1414 1414 1414 1413 1413 1412 1412
1355 1355 1355 1356 1358 1359 1360 1360 1360 1360 1361 1364 1367 1370 1372 1374 1375 1377 1378 1379 1380 1380 1381 1382 1383 1384 1385 1386 1387 1388 1389 1390 1390 1391 1392 1392 1393 1393 1394 1395 1396 1397 1399 1400 1401 1402 1404 1404 1405 1406 1407 1408 1409 1410 1411 1412 1413 1414 1415 1415 1415 1415 1415 1414 1414 1414 1414 1414 1414 1413 1413 1412 1412 1412 1412 1412 1412 1411 1411 1411 1411 1410 1410 1409 1409
1352 1352 1352 1353 1355 1357 1358 1358 1358 1358 1359 1361 1364 1367 1370 1372 1374 1375 1376 1378 1379 1380 1381 1382 1383 1384 1385 1386 1387 1387 1388 1389 1389 1390 1391 1391 1392 1392 1393 1394 1395 1396 1398 1399 1400 1401 1401 1402 1403 1404 1404 1405 1406 1407 1409 1410 1410 1411 1412 1412 1412 1412 1411 1411 1411 1410 1410 1410 1409 1409 1409 1409 1408 1408 1408 1408 1408 1408 1407 1407 1407 1407 1407 1406 1406
1349 1349 1349 1350 1352 1354 1355 1356 1357 1358 1359 1361 1363 1366 1368 1371 1372 1373 1375 1376 1377 1379 1380 1381 1382 1384 1385 1385 1386 1386 1387 1388 1388 1389 1390 1390 1391 1392 1392 1393 1394 1395 1396 1397 1398 1398 1399 1400 1400 1401 1402 1403 1404 1405 1406 1407 1408 1408 1408 1408 1408 1408 1408 1407 1407 1406 1405 1405 1405 1405 1405 1405 1405 1405 1405 1405 1404 1404 1404 1404 1403 1403 1403 1403 1403
1346 1346 1347 1348 1350 1352 1353 1354 1355 1356 1358 1360 1363 1366 1368 1370 1371 1372 1374 1374 1376 1377 1378 1379 1381 1382 1384 1384 1385 1385 1386 1387 1387 1388 1388 1389 1390 1391 1392 1392 1393 1394 1394 1395 1395 1396 1396 1397 1397 1398 1399 1400 1401 1402 1403 1404 1404 1405 1405 1404 1404 1404 1403 1403 1402 1402 1402 1402 1402 1401 1401 1401 1401 1401 1401 1401 1400 1400 1400 1400 1400 1400 1400 1400 1399
1343 1343 1344 1345 1347 1350 1352 1353 1354 1355 1357 1359 1362 1364 1367 1369 1370 1371 1372 1373 1374 1375 1376 1377 1379 1381 1382 1383 1383 1384 1384 1385 1385 1386 1387 1388 1388 1389 1390 1391 1391 1392 1392 1393 1393 1393 1394 1394 1395 1396 1397 1398 1399 1399 1400 1400 1401 1401 1401 1400 1400 1399 1399 1399 1398 1398 1398 1398 1398 1398 1398 1397 1397 1397 1397 1397 1397 1396 1396 1396 1396 1396 1396 1396 1396
1341 1341 1342 1343 1345 1347 1350 1352 1353 1354 1356 1358 1360 1362 1365 1367 1369 1370 1371 1372 1372 1373 1375 1376 1378 1379 1380 1381 1381 1381 1382 1382 1383 1384 1385 1386 1387 1388 1388 1389 1390 1390 1390 1391 1391 1391 1392 1392 1393 1393 1394 1395 1396 1396 1396 1397 1397 1396 1396 1396 1396 1395 1395 1395 1395 1395 1395 1395 1394 1394 1394 1393 1393 1393 1393 1393 1393 1393 1392 1392 1392 1392 1392 1392 1392
1339 1340 1341 1342 1343 1345 1348 1350 1352 1353 1355 1357 1359 1360 1363 1365 1367 1369 1370 1370 1371 1372 1373 1375 1376 1377 1378 1379 1379 1379 1380 1380 1381 1382 1383 1384 1385 1386 1386 1387 1388 1388 1388 1389 1389 1389 1389 1390 1390 1391 1391 1392 1392 1392 1392 1392 1392 1392 1392 1392 1392 1392 1391 1391 1391 1391 1391 1391 1390 1390 1390 1389 1389 1389 1389 1389 1389 1389 1388 1388 1388 1388 1389 1388 1388
1338 1338 1340 1341 1342 1344 1346 1349 1351 1352 1354 1355 1357 1359 1361 1363 1366 1367 1369 1369 1370 1371 1372 1373 1374 1375 1376 1377 1377 1377 1378 1379 1380 1380 1381 1382 1383 1384 1384 1385 1385 1385 1386 1386 1386 1386 1386 1386 1387 1387 1388 1388 1388 1388 1388 1388 1388 1388 1388 1388 1388 1388 1388 1388 1388 1388 1387 1387 1386 1386 1385 1385 1385 1385 1385 1385 1385 1384 1384 1384 1384 1385 1385 1385 1385
1337 1338 1339 1341 1342 1344 1346 1348 1350 1351 1353 1354 1356 1358 1359 1362 1364 1366 1367 1368 1369 1370 1371 1372 1372 1373 1374 1374 1375 1375 1376 1377 1378 1378 1379 1380 1380 1381 1382 1382 1382 1382 1383 1383 1382 1383 1383 1383 1383 1384 1384 1384 1385 1385 1385 1384 1384 1384 1384 1384 1384 1384 1384 1384 1383 1383 1383 1382 1381 1381 1381 1381 1381 1381 1381 1381 1381 1380 1380 1380 1380 1381 1381 1381 1381